Regional Weather Roundup
Issued by NWS

Home | Current Version | Previous Version | Graphics & Text | Print | Product List | Glossary On
Versions: 1 2 3 4 5 6 7 8 9 10 11 12 13 14 15 16 17 18 19 20 21 22 23 24 25 26 27 28 29 30 31 32 33 34 35 36 37 38 39 40 41 42 43 44 45 46 47 48 49 50
000
ASUS45 KPSR 270310
RWRAZ

ARIZONA HOURLY REGIONAL WEATHER ROUNDUP
NATIONAL WEATHER SERVICE PHOENIX AZ
800 PM MST TUE JUL 26 2016

NOTE: FAIR INDICATES FEW OR NO CLOUDS BELOW 12,000 FEET WITH NO
SIGNIFICANT WEATHER AND/OR OBSTRUCTIONS TO VISIBILITY.

AZZ001>003-036-270400-
NORTHWEST ARIZONA

CITY           SKY/WX    TMP DP  RH WIND       PRES   REMARKS
BULLHEAD CITY  CLEAR    109  50  14 SW7       29.66S HX 106
KINGMAN        PTCLDY    97  47  18 SW12      29.94R
$$

AZZ004>008-015-016-018-270400-
NORTH CENTRAL ARIZONA

CITY           SKY/WX    TMP DP  RH WIND       PRES   REMARKS
GRAND CANYON   PTCLDY    72  43  35 CALM      30.26S HAZE
WILLIAMS       PTCLDY    73  55  53 SE3       30.33S
PRESCOTT       PTCLDY    85  50  29 NW3       30.11R
FLAGSTAFF      PTCLDY    65  57  75 NE3       30.29R
PAYSON         CLEAR     82  48  30 N5        30.14R
PAGE           CLEAR     92  41  17 SW5       30.01R
$$

AZZ009>014-017-270400-
NORTHEAST ARIZONA

CITY           SKY/WX    TMP DP  RH WIND       PRES   REMARKS
WINSLOW        CLEAR     81  47  30 SW7       30.09R
SAINT JOHNS    PTCLDY    74  58  57 S5        30.16S
WINDOW ROCK    CLOUDY    78  52  40 N5        30.25S
SHOW LOW       PTCLDY    72  50  46 SE5       30.24S
$$

AZZ023-270400-
GREATER PHOENIX AREA

CITY           SKY/WX    TMP DP  RH WIND       PRES   REMARKS
PHOENIX        PTCLDY   107  57  19 W14       29.71R HX 107
BUCKEYE        CLEAR    104  54  18 W7        29.73S HX 102
GLENDALE       PTCLDY   108  57  19 S6        29.73R HX 107
LUKE AFB       CLEAR    106  57  19 W6        29.71R HX 106
DEER VALLEY    CLEAR    105  54  18 W7        29.74R HX 103
SCOTTSDALE     CLEAR    106  55  18 SW5       29.76R HX 105
MESA-GATEWAY   PTCLDY   106  55  18 W5        29.75R HX 105
CHANDLER       PTCLDY   106  55  18 W6        29.73S HX 105
$$

AZZ027-028-270400-
SOUTHWEST MARICOPA COUNTY AND PINAL COUNTY

CITY           SKY/WX    TMP DP  RH WIND       PRES   REMARKS
CASA GRANDE    CLEAR    104  55  20 NW6       29.79R HX 103
GILA BEND      FAIR     106  57  19 W14       29.72R HX 105
$$

AZZ503-504-507>509-270400-
SOUTHEAST ARIZONA

CITY           SKY/WX    TMP DP  RH WIND       PRES   REMARKS
TUCSON         CLOUDY    86  63  45 S16G31    29.92R
DAVIS-MONTHAN  CLOUDY    85  63  48 S17       29.92R
RYAN FIELD     PTCLDY    91  63  38 S24       29.92R
NOGALES        CLOUDY    79  64  60 NE5       30.05R
SIERRA VISTA   MOCLDY    79  57  47 W17       30.10R
DOUGLAS        MOCLDY    85  64  49 SE5       30.02R
SAFFORD        MOCLDY    94  53  25 NE17G23   29.89R
$$

AZZ020-021-025-026-031-270400-
SOUTHWEST ARIZONA

CITY           SKY/WX    TMP DP  RH WIND       PRES   REMARKS
YUMA           PTCLDY   103  65  29 S15       29.70R HX 106
$$

CAZ031-033-041-043-047-048-061-270400-
SOUTHERN CALIFORNIA

CITY           SKY/WX    TMP DP  RH WIND       PRES   REMARKS
DOWNTOWN L.A.  CLEAR     74  63  68 CALM      29.84R
L.A. AIRPORT   PTCLDY    71  64  78 W12       29.85R
SAN DIEGO      PTCLDY    72  65  78 NW8       29.87S
BURBANK        CLEAR     83  46  27 SE9       29.84R
ONTARIO        PTCLDY    86  38  18 W13       29.86R
RIVERSIDE      CLEAR     87  49  26 W9        29.85R
PALM SPRINGS   CLEAR    107  54  17 NW13      29.70S HX 105
EL CENTRO NAS  PTCLDY   104  60  23 SE6       29.67S HX 105
IMPERIAL       CLEAR    107  63  23 SE10      29.65R HX 110
BLYTHE         CLEAR    109  56  17 SW10      29.68R HX 108
NEEDLES        MOCLDY   112  50  13 SW8       29.69R HX 109
$$

NVZ020-UTZ003-270400-
SOUTHERN NEVADA-UTAH

CITY           SKY/WX    TMP DP  RH WIND       PRES   REMARKS
LAS VEGAS      PTCLDY   107  39  10 E5        29.75S HX 101
SALT LAKE CITY PTCLDY    94  23   8 E3        29.97S
$$

NMZ009-TXZ055-270400-
NEW MEXICO-WEST TEXAS

CITY           SKY/WX    TMP DP  RH WIND       PRES   REMARKS
ALBUQUERQUE    CLOUDY    81  54  39 SE23G30   30.16R
EL PASO        MOCLDY    86  55  34 E12       30.01R
$$


........................KEY........................
SKY/WX - SKY CONDITION/WEATHER
TMP    - TEMPERATURE IN FAHRENHEIT
DP     - DEW POINT IN FAHRENHEIT
RH     - RELATIVE HUMIDITY IN PERCENT
WIND   - DIRECTION AND SPEED IN MILES PER HOUR (MPH)
VRB    - VARIABLE WIND DIRECTION
PRES   - MEAN SEA LEVEL PRESSURE IN INCHES OF MERCURY
         F - FALLING PRESSURE   R - RISING PRESSURE
         S - STEADY PRESSURE
VSB    - VISIBILITY IN MILES
HX     - HEAT INDEX IN FAHRENHEIT
WCI    - WIND CHILL INDEX IN FAHRENHEIT
TC     - TEMPERATURE IN CELSIUS WHICH IS ALSO KNOWN AS
         TEMPERATURE IN CENTIGRADE
AFB    - AIR FORCE BASE
         LUKE AFB IS LUKE AIR FORCE BASE
         DAVIS-MONTHAN IS DAVIS-MONTHAN AIR FORCE BASE
NAS    - NAVAL AIR STATION
         EL CENTRO NAS IS EL CENTRO NAVAL AIR STATION
N/A    - NOT AVAILABLE




USA.gov is the U.S. government's official web portal to all federal, state and local government web resources and services.